Edward Cornwallis — CGJV — position and weather

sailwx.info

Track history (hours):
 
Tides and Currents Weather Stations Pressure Air Temp Water Temp Dewpoint Dewpoint Depression Visibility Wind Speed Wind Dir Waves Ship Positions

Edward Cornwallis

Last reported at 2014-Jul-22 16:30 UTC. Time now 2014-Jul-24 17:01 UTC.
Position N 47°42' W 052°35'.

Length 83 m; draft 6 m.

Type: SAR. MMSI: 316020000.

Date/timePositionNaut miles runAvg speedWind from/ knotsBaromVisibWave heightAir tempDewpointWater temp
2014-Jul-22 16:30N 47°42' W 052°35'10 9.4
2014-Jul-22 15:29N 47°33' W 052°42'0 0.0
2014-Jul-22 14:32N 47°33' W 052°42'0 0.0
2014-Jul-22 13:23N 47°33' W 052°42'0 0.0
2014-Jul-22 12:29N 47°33' W 052°42'0 0.0
2014-Jul-22 11:29N 47°33' W 052°42'0 0.0
2014-Jul-22 10:32N 47°33' W 052°42'0 0.0
2014-Jul-22 09:32N 47°33' W 052°42'0 0.0
2014-Jul-22 08:26N 47°33' W 052°42'0 0.0
2014-Jul-22 07:29N 47°33' W 052°42'0 0.0
2014-Jul-22 06:29N 47°33' W 052°42'0 0.0
2014-Jul-22 05:29N 47°33' W 052°42'0 0.0
2014-Jul-22 04:32N 47°33' W 052°42'0 0.0
2014-Jul-22 03:29N 47°33' W 052°42'5 5.3
2014-Jul-22 02:31N 47°36' W 052°36'5 1.0
2014-Jul-21 21:30N 47°41' W 052°35'9 9.0
2014-Jul-21 20:29N 47°33' W 052°42'0 0.0
2014-Jul-21 20:13N 47°33' W 052°42'0 0.0
2014-Jul-21 18:31N 47°33' W 052°42'0 0.0
2014-Jul-21 17:19N 47°33' W 052°42'0 0.0
2014-Jul-21 16:31N 47°33' W 052°42'0 0.0
2014-Jul-21 15:31N 47°33' W 052°42'0 0.0
2014-Jul-21 14:13N 47°33' W 052°42'0 0.0
2014-Jul-21 13:31N 47°33' W 052°42'0 0.0
2014-Jul-21 12:31N 47°33' W 052°42'0 0.0
2014-Jul-21 11:31N 47°33' W 052°42'0 0.0
2014-Jul-21 10:25N 47°33' W 052°42'0 0.2
2014-Jul-21 09:33N 47°34' W 052°42'6 6.0
2014-Jul-21 08:30N 47°30' W 052°35'10 9.8
2014-Jul-21 07:28N 47°20' W 052°35'  
Track history (hours):
 
Tides and Currents Weather Stations Pressure Air Temp Water Temp Dewpoint Dewpoint Depression Visibility Wind Speed Wind Dir Waves Ship Positions

Edward Cornwallis

Last reported at 2014-Jul-22 16:30 UTC. Time now 2014-Jul-24 17:01 UTC.
Position N 47°42' W 052°35'.

Length 83 m; draft 6 m.

Type: SAR. MMSI: 316020000.

Date/timePositionNaut miles runAvg speedWind from/ knotsBaromVisibWave heightAir tempDewpointWater temp
2014-Jul-22 16:30N 47°42' W 052°35'10 9.4
2014-Jul-22 15:29N 47°33' W 052°42'0 0.0
2014-Jul-22 14:32N 47°33' W 052°42'0 0.0
2014-Jul-22 13:23N 47°33' W 052°42'0 0.0
2014-Jul-22 12:29N 47°33' W 052°42'0 0.0
2014-Jul-22 11:29N 47°33' W 052°42'0 0.0
2014-Jul-22 10:32N 47°33' W 052°42'0 0.0
2014-Jul-22 09:32N 47°33' W 052°42'0 0.0
2014-Jul-22 08:26N 47°33' W 052°42'0 0.0
2014-Jul-22 07:29N 47°33' W 052°42'0 0.0
2014-Jul-22 06:29N 47°33' W 052°42'0 0.0
2014-Jul-22 05:29N 47°33' W 052°42'0 0.0
2014-Jul-22 04:32N 47°33' W 052°42'0 0.0
2014-Jul-22 03:29N 47°33' W 052°42'5 5.3
2014-Jul-22 02:31N 47°36' W 052°36'5 1.0
2014-Jul-21 21:30N 47°41' W 052°35'9 9.0
2014-Jul-21 20:29N 47°33' W 052°42'0 0.0
2014-Jul-21 20:13N 47°33' W 052°42'0 0.0
2014-Jul-21 18:31N 47°33' W 052°42'0 0.0
2014-Jul-21 17:19N 47°33' W 052°42'0 0.0
2014-Jul-21 16:31N 47°33' W 052°42'0 0.0
2014-Jul-21 15:31N 47°33' W 052°42'0 0.0
2014-Jul-21 14:13N 47°33' W 052°42'0 0.0
2014-Jul-21 13:31N 47°33' W 052°42'0 0.0
2014-Jul-21 12:31N 47°33' W 052°42'0 0.0
2014-Jul-21 11:31N 47°33' W 052°42'0 0.0
2014-Jul-21 10:25N 47°33' W 052°42'0 0.2
2014-Jul-21 09:33N 47°34' W 052°42'6 6.0
2014-Jul-21 08:30N 47°30' W 052°35'10 9.8
2014-Jul-21 07:28N 47°20' W 052°35'  

Dump ship's entire track history